�N����,����,�~����,�C��,���x,�C��,����,���ϕ���,�ő�u�ԕ���,�ő厞����,���˗�,�I�_���x,�n�����x,�ő啗���N��,DTYPE
"22/10/19","00:10",0.0,10.6,93.0,1013.5,322.5,1.2,1.8,336.6,0.00,9.6,18.6,"00:01:36",1
"22/10/19","00:20",0.0,10.2,93.2,1013.5,310.5,1.3,2.1,326.8,0.00,9.2,18.6,"00:10:08",1
"22/10/19","00:30",0.0,10.1,93.4,1013.0,290.8,1.1,1.8,322.7,0.00,9.1,18.4,"00:24:32",1
"22/10/19","00:40",0.0,10.2,93.7,1013.0,301.9,1.0,1.7,306.6,0.00,9.3,18.6,"00:33:12",1
"22/10/19","00:50",0.0,10.2,93.8,1013.3,315.1,1.5,2.0,324.0,0.00,9.3,18.3,"00:42:00",1
"22/10/19","01:00",0.0,10.0,94.0,1013.5,302.3,1.2,2.0,324.0,0.00,9.1,18.4,"00:59:36",1
"22/10/19","01:10",0.0,9.7,94.2,1013.8,311.0,1.5,2.0,324.2,0.00,8.9,18.4,"01:06:00",1
"22/10/19","01:20",0.0,9.8,94.5,1013.8,314.0,1.3,1.8,330.3,0.00,9.0,18.2,"01:13:20",1
"22/10/19","01:30",0.0,9.7,94.6,1013.8,318.1,1.5,2.1,326.3,0.00,8.9,18.2,"01:20:56",1
"22/10/19","01:40",0.0,9.6,94.9,1013.8,310.2,1.1,2.0,328.2,0.00,8.9,18.2,"01:38:32",1
"22/10/19","01:50",0.0,9.6,95.0,1013.3,283.9,1.3,2.2,253.5,0.00,8.9,18.3,"01:40:32",1
"22/10/19","02:00",0.0,9.4,95.1,1013.3,306.8,1.3,2.1,333.0,0.00,8.7,18.1,"01:55:12",1
"22/10/19","02:10",0.0,9.4,95.3,1013.5,308.3,1.5,2.1,321.0,0.00,8.7,18.1,"02:06:48",1
"22/10/19","02:20",0.0,9.5,95.5,1013.8,310.0,1.6,2.1,317.9,0.00,8.9,18.0,"02:18:40",1
"22/10/19","02:30",0.0,9.7,95.7,1013.5,301.7,1.6,2.4,326.9,0.00,9.1,18.2,"02:29:44",1
"22/10/19","02:40",0.0,9.7,95.7,1013.8,312.5,1.5,2.1,313.5,0.00,9.1,17.9,"02:32:48",1
"22/10/19","02:50",0.0,9.6,95.9,1013.8,292.1,1.3,1.7,319.3,0.00,9.0,17.9,"02:42:32",1
"22/10/19","03:00",0.0,9.6,95.9,1013.8,282.0,1.3,1.9,267.7,0.00,9.0,18.1,"02:52:00",1
"22/10/19","03:10",0.0,9.4,96.1,1013.8,297.0,1.3,1.9,319.2,0.00,8.9,18.0,"03:02:08",1
"22/10/19","03:20",0.0,9.5,96.3,1014.0,312.7,1.8,2.6,318.9,0.00,9.0,17.8,"03:13:44",1
"22/10/19","03:30",0.0,9.4,96.3,1013.8,299.6,1.3,2.7,315.4,0.00,8.9,17.7,"03:27:36",1
"22/10/19","03:40",0.0,9.3,96.5,1014.0,298.0,1.3,2.2,319.2,0.00,8.8,17.7,"03:33:28",1
"22/10/19","03:50",0.0,9.4,96.6,1014.0,313.6,1.7,2.4,315.2,0.00,8.9,17.5,"03:46:16",1
"22/10/19","04:00",0.0,9.6,96.7,1013.8,311.2,2.0,3.2,328.2,0.00,9.1,17.3,"03:58:08",1
"22/10/19","04:10",0.0,9.6,96.7,1013.8,312.5,1.7,2.6,328.9,0.00,9.1,17.5,"04:01:12",1
"22/10/19","04:20",0.0,9.6,96.8,1013.8,331.2,1.7,3.1,343.6,0.00,9.2,17.7,"04:16:00",1
"22/10/19","04:30",0.0,9.5,96.9,1013.8,317.7,1.8,2.8,332.6,0.00,9.1,17.3,"04:29:36",1
"22/10/19","04:40",0.0,9.5,96.9,1013.8,311.9,1.7,3.4,327.6,0.00,9.1,17.3,"04:33:36",1
"22/10/19","04:50",0.0,9.4,97.0,1014.0,296.0,1.6,2.2,311.3,0.00,9.0,17.4,"04:40:48",1
"22/10/19","05:00",0.2,9.4,97.0,1014.0,306.1,1.7,2.2,318.7,0.00,9.0,17.4,"04:52:08",1
"22/10/19","05:10",0.0,9.5,97.1,1014.0,310.0,2.1,2.9,331.5,0.00,9.1,17.3,"05:07:20",1
"22/10/19","05:20",0.0,9.5,97.1,1014.0,312.4,2.0,3.2,333.3,0.00,9.1,17.2,"05:16:24",1
"22/10/19","05:30",0.0,9.5,97.1,1013.8,312.4,1.8,3.1,327.7,0.00,9.1,17.2,"05:25:52",1
"22/10/19","05:40",0.0,9.7,97.0,1014.0,319.0,2.3,3.7,328.5,0.00,9.3,17.2,"05:34:40",1
"22/10/19","05:50",0.0,9.5,97.0,1014.0,316.6,1.8,2.6,326.2,0.00,9.1,17.4,"05:48:00",1
"22/10/19","06:00",0.0,9.4,97.0,1014.2,311.9,1.8,2.8,320.2,0.00,9.0,17.0,"05:53:04",1
"22/10/19","06:10",0.0,9.3,97.1,1013.8,321.0,1.8,2.8,322.4,0.00,8.9,17.2,"06:00:02",1
"22/10/19","06:20",0.0,9.2,97.1,1014.5,306.1,1.7,2.6,337.4,0.00,8.8,17.1,"06:18:08",1
"22/10/19","06:30",0.0,9.2,97.1,1014.5,317.1,2.0,3.1,320.3,0.00,8.8,17.1,"06:26:32",1
"22/10/19","06:40",0.0,9.2,97.1,1014.0,313.3,1.7,2.5,327.0,0.00,8.8,17.1,"06:37:20",1
"22/10/19","06:50",0.0,9.1,97.2,1014.7,319.9,1.7,2.7,317.4,0.00,8.7,16.8,"06:41:44",1
"22/10/19","07:00",0.0,9.3,97.1,1014.5,326.0,2.0,3.1,328.6,0.00,8.9,16.9,"06:54:48",1
"22/10/19","07:10",0.0,9.5,97.1,1014.7,323.3,2.2,2.9,329.2,0.00,9.1,17.1,"07:00:08",1
"22/10/19","07:20",0.0,10.2,96.9,1014.7,317.1,2.3,3.3,329.0,0.00,9.8,17.0,"07:11:12",1
"22/10/19","07:30",0.0,10.6,96.5,1014.7,314.3,2.0,3.2,298.2,0.00,10.1,17.2,"07:25:04",1
"22/10/19","07:40",0.0,11.1,96.1,1015.2,318.9,1.6,3.5,330.8,0.01,10.5,16.9,"07:36:00",1
"22/10/19","07:50",0.0,11.6,95.4,1015.2,318.5,2.0,3.6,311.0,0.01,10.9,16.8,"07:41:44",1
"22/10/19","08:00",0.0,12.0,94.5,1015.4,322.4,1.8,3.5,349.5,0.03,11.2,17.0,"07:57:20",1
"22/10/19","08:10",0.0,12.8,93.7,1015.2,306.0,1.3,2.6,298.0,0.05,11.9,16.8,"08:04:20",1
"22/10/19","08:20",0.0,13.4,91.6,1015.4,315.4,1.8,2.8,325.9,0.09,12.1,16.9,"08:14:32",1
"22/10/19","08:30",0.0,13.8,88.7,1015.6,321.4,2.2,4.1,338.6,0.13,12.0,16.9,"08:23:04",1
"22/10/19","08:40",0.0,14.6,84.3,1016.4,317.3,1.8,4.1,341.3,0.16,12.0,16.9,"08:30:32",1
"22/10/19","08:50",0.0,15.3,78.9,1016.4,299.3,1.2,2.7,338.7,0.18,11.7,16.8,"08:43:36",1
"22/10/19","09:00",0.0,16.0,73.2,1016.6,309.0,1.6,2.9,342.1,0.21,11.2,16.9,"08:57:52",1
"22/10/19","09:10",0.0,16.6,69.3,1016.4,290.8,1.2,2.5,266.9,0.24,11.0,16.8,"09:04:24",1
"22/10/19","09:20",0.0,16.8,67.6,1016.4,263.8,1.5,4.3,232.8,0.26,10.8,17.0,"09:18:56",1
"22/10/19","09:30",0.0,17.2,63.1,1016.4,303.4,1.2,2.4,351.1,0.28,10.2,16.8,"09:28:40",1
"22/10/19","09:40",0.0,17.9,59.5,1016.4,260.6,1.1,2.4,238.0,0.31,9.9,17.0,"09:37:20",1
"22/10/19","09:50",0.0,18.5,60.0,1015.9,177.6,0.8,1.8,138.2,0.33,10.6,17.1,"09:45:12",1
"22/10/19","10:00",0.0,18.7,56.4,1015.9,157.1,0.7,1.8,128.9,0.35,9.9,17.1,"09:56:08",1
"22/10/19","10:10",0.0,19.1,55.1,1015.6,184.4,0.7,2.0,135.6,0.37,9.9,17.2,"10:08:16",1
"22/10/19","10:20",0.0,19.2,49.5,1015.6,151.1,0.7,2.1,212.7,0.39,8.4,17.2,"10:19:04",1
"22/10/19","10:30",0.0,19.9,49.1,1015.4,250.0,0.6,1.7,232.7,0.41,9.0,17.2,"10:24:32",1
"22/10/19","10:40",0.0,19.8,46.9,1015.2,263.6,1.1,2.6,347.5,0.42,8.2,17.3,"10:39:44",1
"22/10/19","10:50",0.0,20.0,47.4,1015.2,235.9,0.7,1.9,237.4,0.43,8.5,17.2,"10:40:32",1
"22/10/19","11:00",0.0,20.3,46.0,1015.2,165.0,0.8,2.1,205.8,0.45,8.4,17.2,"10:54:00",1
"22/10/19","11:10",0.0,20.6,44.4,1015.2,301.2,1.2,3.3,346.8,0.46,8.1,17.3,"11:06:32",1
"22/10/19","11:20",0.0,20.3,44.8,1014.7,356.6,1.8,3.4,342.8,0.47,8.0,17.4,"11:14:00",1
"22/10/19","11:30",0.0,20.7,43.5,1014.9,359.7,1.5,3.6,350.8,0.47,7.9,17.5,"11:22:40",1
"22/10/19","11:40",0.0,20.6,45.0,1014.7,323.8,1.7,3.5,324.8,0.48,8.3,17.6,"11:39:44",1
"22/10/19","11:50",0.0,20.8,43.7,1014.0,358.3,1.6,3.2,342.6,0.49,8.1,17.8,"11:47:44",1
"22/10/19","12:00",0.0,20.9,43.8,1014.0,334.7,1.7,3.9,352.4,0.49,8.2,17.7,"11:56:48",1
"22/10/19","12:10",0.0,21.0,42.4,1014.2,345.1,2.0,4.1,340.3,0.49,7.8,17.7,"12:01:52",1
"22/10/19","12:20",0.0,21.2,40.8,1014.5,340.4,1.8,4.2,342.9,0.49,7.4,17.9,"12:10:32",1
"22/10/19","12:30",0.0,21.4,42.4,1014.0,343.1,2.0,4.0,327.9,0.49,8.1,18.1,"12:25:28",1
"22/10/19","12:40",0.0,21.7,42.4,1014.0,354.5,1.6,3.5,338.7,0.49,8.4,18.1,"12:31:44",1
"22/10/19","12:50",0.0,21.9,39.4,1014.0,22.1,1.1,3.1,11.1,0.49,7.5,18.1,"12:47:36",1
"22/10/19","13:00",0.0,21.7,42.5,1013.8,351.2,2.2,4.4,352.1,0.48,8.5,18.3,"12:52:56",1
"22/10/19","13:10",0.0,21.7,43.0,1013.5,340.8,2.0,4.3,348.8,0.48,8.6,18.2,"13:05:36",1
"22/10/19","13:20",0.0,21.7,42.9,1013.5,346.9,2.3,4.2,351.5,0.47,8.6,18.5,"13:15:04",1
"22/10/19","13:30",0.0,21.4,44.2,1013.5,341.0,3.0,6.6,350.5,0.46,8.8,18.3,"13:21:12",1
"22/10/19","13:40",0.0,21.4,42.3,1013.5,323.7,2.2,5.4,306.4,0.45,8.1,18.4,"13:38:40",1
"22/10/19","13:50",0.0,21.3,42.1,1013.3,332.1,2.7,7.3,351.2,0.44,8.0,18.4,"13:49:44",1
"22/10/19","14:00",0.0,21.2,42.3,1013.3,341.2,3.0,5.5,343.2,0.42,7.9,18.7,"13:51:44",1
"22/10/19","14:10",0.0,21.2,40.9,1013.3,344.9,2.7,5.4,348.9,0.41,7.4,18.8,"14:00:32",1
"22/10/19","14:20",0.0,21.1,41.2,1013.5,337.8,2.8,6.4,343.4,0.39,7.5,18.7,"14:13:52",1
"22/10/19","14:30",0.0,21.0,41.6,1013.0,339.8,3.0,5.2,5.0,0.37,7.5,18.8,"14:29:20",1
"22/10/19","14:40",0.0,20.9,42.0,1013.5,339.7,3.0,6.0,354.7,0.36,7.6,19.2,"14:33:04",1
"22/10/19","14:50",0.0,20.6,41.7,1013.3,339.0,3.5,6.6,348.3,0.34,7.2,19.1,"14:49:52",1
"22/10/19","15:00",0.0,20.9,41.8,1013.5,336.0,3.0,4.8,332.2,0.32,7.5,18.9,"14:59:44",1
"22/10/19","15:10",0.0,20.7,41.6,1013.8,336.5,3.0,5.7,338.2,0.30,7.2,19.2,"15:03:12",1
"22/10/19","15:20",0.0,20.8,40.8,1013.5,340.0,2.8,5.8,340.4,0.27,7.0,19.1,"15:17:28",1
"22/10/19","15:30",0.0,20.7,41.8,1013.8,342.5,2.8,5.9,341.6,0.25,7.3,19.2,"15:26:00",1
"22/10/19","15:40",0.0,20.6,41.5,1013.5,343.6,2.8,5.6,346.3,0.22,7.1,19.3,"15:30:08",1
"22/10/19","15:50",0.0,20.5,42.5,1013.8,344.3,3.0,6.4,358.8,0.20,7.4,19.3,"15:40:08",1
"22/10/19","16:00",0.0,20.3,43.1,1014.0,332.1,2.6,5.8,355.8,0.17,7.4,19.2,"15:56:16",1
"22/10/19","16:10",0.0,20.2,43.3,1013.8,339.8,3.0,5.5,352.6,0.15,7.4,19.4,"16:08:16",1
"22/10/19","16:20",0.0,20.0,44.1,1014.2,339.8,2.6,6.8,340.3,0.12,7.5,19.3,"16:11:20",1
"22/10/19","16:30",0.0,19.7,44.9,1014.5,341.8,2.7,6.6,347.1,0.10,7.5,19.4,"16:29:52",1
"22/10/19","16:40",0.0,19.7,46.2,1014.2,341.6,2.2,4.8,318.5,0.07,7.9,19.3,"16:30:48",1
"22/10/19","16:50",0.0,19.4,47.4,1014.5,336.6,2.2,5.1,338.9,0.05,8.0,19.1,"16:46:16",1
"22/10/19","17:00",0.0,19.0,47.5,1014.5,332.5,2.7,5.6,336.6,0.03,7.6,19.3,"16:52:40",1
"22/10/19","17:10",0.0,18.5,49.3,1014.7,327.6,2.5,3.5,344.1,0.02,7.7,19.3,"17:02:48",1
"22/10/19","17:20",0.0,18.0,50.3,1014.9,329.9,2.5,5.0,333.9,0.00,7.6,19.2,"17:12:08",1
"22/10/19","17:30",0.0,17.2,52.3,1014.9,326.1,1.8,3.4,326.8,0.00,7.4,19.2,"17:29:12",1
"22/10/19","17:40",0.0,16.7,53.6,1014.7,328.1,2.2,4.9,341.7,0.00,7.3,19.2,"17:37:36",1
"22/10/19","17:50",0.0,16.3,55.1,1015.2,324.8,2.1,3.7,349.0,0.00,7.3,19.4,"17:49:36",1
"22/10/19","18:00",0.0,16.0,56.4,1015.2,326.2,2.1,3.7,334.3,0.00,7.4,19.2,"17:56:32",1
"22/10/19","18:10",0.0,15.9,57.3,1015.4,320.3,2.1,3.7,348.0,0.00,7.5,19.0,"18:07:12",1
"22/10/19","18:20",0.0,15.7,58.0,1015.6,317.3,1.8,3.3,308.0,0.00,7.5,19.2,"18:10:16",1
"22/10/19","18:30",0.0,15.7,58.4,1015.9,330.2,2.6,4.5,319.0,0.00,7.6,19.0,"18:26:10",1
"22/10/19","18:40",0.0,15.3,59.9,1016.1,330.3,1.3,2.2,311.4,0.00,7.6,19.0,"18:39:04",1
"22/10/19","18:50",0.0,15.3,60.3,1016.4,325.1,2.2,4.2,341.3,0.00,7.7,19.0,"18:45:20",1
"22/10/19","19:00",0.0,15.3,60.1,1016.4,329.8,2.2,3.9,320.5,0.00,7.7,19.1,"18:57:22",1
"22/10/19","19:10",0.0,15.1,61.1,1016.4,334.1,1.7,4.2,341.7,0.00,7.7,18.9,"19:09:54",1
"22/10/19","19:20",0.0,14.8,62.5,1016.8,322.2,1.5,2.9,335.5,0.00,7.8,18.9,"19:13:52",1
"22/10/19","19:30",0.0,13.9,65.7,1016.6,294.6,0.6,1.0,322.1,0.00,7.6,18.7,"19:27:38",1
"22/10/19","19:40",0.0,13.0,68.5,1016.8,302.9,1.0,1.7,294.7,0.00,7.4,18.5,"19:30:02",1
"22/10/19","19:50",0.0,13.0,69.9,1016.8,300.7,1.8,2.0,330.0,0.00,7.7,18.7,"19:49:20",1
"22/10/19","20:00",0.0,13.1,70.4,1016.8,304.6,0.7,1.8,323.4,0.00,7.9,18.6,"19:59:24",1
"22/10/19","20:10",0.0,12.7,70.9,1016.8,296.9,1.1,1.9,309.8,0.00,7.6,18.5,"20:01:10",1
"22/10/19","20:20",0.0,12.1,71.9,1016.8,294.5,1.0,1.2,330.2,0.00,7.2,18.5,"20:12:58",1
"22/10/19","20:30",0.0,11.9,73.3,1016.8,291.5,1.1,2.1,326.2,0.00,7.3,18.6,"20:29:46",1
"22/10/19","20:40",0.0,12.1,74.2,1017.3,303.6,1.2,1.9,322.0,0.00,7.7,18.4,"20:30:16",1
"22/10/19","20:50",0.0,11.8,75.5,1017.3,297.8,1.1,2.1,323.4,0.00,7.7,18.4,"20:48:50",1
"22/10/19","21:00",0.0,11.4,77.5,1017.3,310.8,1.1,2.6,343.8,0.00,7.7,18.4,"20:53:42",1
"22/10/19","21:10",0.0,10.9,80.4,1017.5,325.4,1.3,2.1,317.2,0.00,7.7,18.4,"21:03:12",1
"22/10/19","21:20",0.0,10.6,82.4,1017.3,321.1,1.2,2.2,341.6,0.00,7.8,18.4,"21:11:20",1
"22/10/19","21:30",0.0,10.4,83.7,1017.8,293.3,1.0,1.8,322.1,0.00,7.8,18.1,"21:20:08",1
"22/10/19","21:40",0.0,10.4,85.0,1017.5,316.0,0.8,1.9,317.3,0.00,8.0,18.1,"21:34:00",1
"22/10/19","21:50",0.0,10.2,86.0,1017.8,325.0,1.6,2.2,329.3,0.00,8.0,18.0,"21:45:52",1
"22/10/19","22:00",0.0,10.2,87.0,1018.0,332.4,1.6,2.0,336.3,0.00,8.2,18.1,"21:50:16",1
"22/10/19","22:10",0.0,10.3,87.7,1018.0,326.0,1.5,2.6,336.2,0.00,8.4,18.2,"22:00:40",1
"22/10/19","22:20",0.0,10.3,88.1,1018.2,302.6,1.5,2.1,320.5,0.00,8.5,18.0,"22:12:24",1
"22/10/19","22:30",0.0,10.2,88.4,1018.0,317.5,1.5,3.1,344.1,0.00,8.4,17.7,"22:22:48",1
"22/10/19","22:40",0.0,10.0,88.7,1018.0,309.6,1.2,2.2,313.1,0.00,8.3,17.9,"22:36:00",1
"22/10/19","22:50",0.0,10.0,88.8,1018.2,322.5,1.5,2.0,313.6,0.00,8.3,17.7,"22:43:28",1
"22/10/19","23:00",0.0,10.1,88.8,1018.5,323.3,1.5,2.1,331.0,0.00,8.4,17.7,"22:52:00",1
"22/10/19","23:10",0.0,10.4,88.5,1018.2,325.5,1.5,2.4,336.2,0.00,8.6,17.8,"23:04:52",1
"22/10/19","23:20",0.0,10.3,88.1,1018.5,331.3,1.0,1.7,324.6,0.00,8.5,17.6,"23:10:56",1
"22/10/19","23:30",0.0,10.1,88.0,1018.2,313.6,1.2,2.1,328.4,0.00,8.2,17.5,"23:24:24",1
"22/10/19","23:40",0.0,9.7,88.0,1018.5,302.5,1.2,1.8,314.7,0.00,7.9,17.5,"23:32:00",1
"22/10/19","23:50",0.0,10.0,88.0,1018.2,312.2,1.3,2.6,327.9,0.00,8.1,17.3,"23:43:44",1
"22/10/19","24:00",0.0,10.0,88.0,1018.5,325.0,1.7,2.9,335.7,0.00,8.1,17.4,"23:54:32",1
